Notices

What's New in latest Release from April 7th, 2021:

- Updated Glossary, including Speed of Maximum Gust, and Total Hourly Precipitation

- Updated national and regional climate services offices contacts and prices information

- Addition of station inventory lists for 1981-2010, 1971-2000, and 1961-1990 Normals.

Please note that as of June 10, 2021 UTC dates are available for all years 2004-present, and DBA is working on populating the remaining years (2003 to 1953).

If you haven't already, please take our survey and provide feedback about our website: https://eccc.sondage-survey.ca/f/LanguageSelection.aspx?s=442ca660-fcf1-47c0-95a9-59707d6fd709

Hourly Data Report for November 23, 2019

QUALICUM BEACH AIRPORT
BRITISH COLUMBIA
Current Station Operator: ECCC - MSC

49°20'14.000" N
124°23'38.000" W
58.20 m
1026562
71766
VOQ

Download Data

Hourly Data (November 2019)
Hourly Data Report for November 23, 2019
TIME
LST
Temp Definition
°C
Dew Point Definition
°C
Rel Hum Definition
%
Precip. Amount Definition
mm

Wind Dir Definition
10's deg

Wind Spd Definition
km/h
Visibility Definition
km
Stn Press Definition
kPa
Hmdx Definition


Wind Chill Definition


Weather Definition


00:00 5.3 4.5 95 LegendMM 15 5   101.88     LegendNANA
01:00 5.6 4.9 95 LegendMM 15 9   101.81     LegendNANA
02:00 6.1 5.1 93 LegendMM 12 7   101.82     LegendNANA
03:00 6.7 5.4 91 LegendMM 10 7   101.87     LegendNANA
04:00 6.2 4.7 90 LegendMM 14 6   101.78     LegendNANA
05:00 6.6 5.4 92 LegendMM 11 9   101.73     LegendNANA
06:00 6.4 5.3 93 LegendMM 13 9   101.63     LegendNANA
07:00 6.7 5.6 93 LegendMM 10 12   101.62     LegendNANA
08:00 6.9 5.7 92 LegendMM 12 17   101.61     LegendNANA
09:00 6.8 5.6 92 LegendMM 13 11   101.63     LegendNANA
10:00 7.0 5.8 92 LegendMM 11 16   101.51     LegendNANA
11:00 7.6 6.2 91 LegendMM 9 11   101.47     LegendNANA
12:00 8.0 6.5 91 LegendMM 11 12   101.36     LegendNANA
13:00 8.2 6.8 90 LegendMM 9 14   101.27     LegendNANA
14:00 8.8 6.8 87 LegendMM 11 14   101.14     LegendNANA
15:00 9.2 6.9 86 LegendMM 10 13   101.05     LegendNANA
16:00 9.0 7.2 89 LegendMM 12 15   100.93     LegendNANA
17:00 8.5 7.6 94 LegendMM 10 12   100.79     LegendNANA
18:00 8.8 8.0 95 LegendMM 11 13   100.68     LegendNANA
19:00 9.1 8.3 95 LegendMM 10 16   100.51     LegendNANA
20:00 9.0 8.2 94 LegendMM 5 5   100.46     LegendNANA
21:00 9.4 8.5 94 LegendMM 9 7   100.60     LegendNANA
22:00 9.5 7.9 89 LegendMM 31 30   100.80     LegendNANA
23:00 9.7 7.9 89 LegendMM 33 14   101.01     LegendNANA

Notes on Data Quality.

Legend

  • E = Estimated
  • M = Missing
  • NA = Not Available*
  • [empty] = Indicates an unobserved value
Date modified: